Time,TemperatureF,DewpointF,PressureIn,WindDirection,WindDirectionDegrees,WindSpeedMPH,WindSpeedGustMPH,Humidity,HourlyPrecipIn,Conditions,Clouds,dailyrainin,SoftwareType,DateUTC
2013-04-29 00:01:00,55.8,45.4,30.10,East,90,0.0,0.9,68,0.00,,,0.00,WUHU216HW,2013-04-29 07:01:00,
2013-04-29 00:06:00,55.8,45.4,30.10,SSE,158,0.7,1.1,68,0.00,,,0.00,WUHU216HW,2013-04-29 07:06:00,
2013-04-29 00:11:00,55.8,45.4,30.10,SSW,203,0.2,1.1,68,0.00,,,0.00,WUHU216HW,2013-04-29 07:11:00,
2013-04-29 00:16:00,55.6,45.3,30.09,SSE,158,0.4,1.1,68,0.00,,,0.00,WUHU216HW,2013-04-29 07:16:00,
2013-04-29 00:21:00,55.4,45.5,30.09,SSW,203,1.1,1.8,69,0.00,,,0.00,WUHU216HW,2013-04-29 07:21:00,
2013-04-29 00:26:00,55.3,45.3,30.09,SW,225,2.5,3.4,69,0.00,,,0.00,WUHU216HW,2013-04-29 07:26:00,
2013-04-29 00:31:00,55.1,45.1,30.09,South,180,0.0,3.4,69,0.00,,,0.00,WUHU216HW,2013-04-29 07:31:00,
2013-04-29 00:36:00,55.1,45.5,30.09,SW,225,2.2,4.9,70,0.00,,,0.00,WUHU216HW,2013-04-29 07:36:00,
2013-04-29 00:41:00,55.1,45.5,30.09,SSE,158,2.0,4.9,70,0.00,,,0.00,WUHU216HW,2013-04-29 07:41:00,
2013-04-29 00:46:00,54.9,45.4,30.09,SW,225,1.8,3.8,70,0.00,,,0.00,WUHU216HW,2013-04-29 07:46:00,
2013-04-29 00:51:00,54.9,45.7,30.09,East,90,1.6,3.8,71,0.00,,,0.00,WUHU216HW,2013-04-29 07:51:00,
2013-04-29 00:56:00,54.9,46.5,30.09,ENE,68,0.4,2.7,73,0.00,,,0.00,WUHU216HW,2013-04-29 07:56:00,
2013-04-29 01:01:00,54.7,46.3,30.09,East,90,0.4,2.7,73,0.00,,,0.00,WUHU216HW,2013-04-29 08:01:00,
2013-04-29 01:06:00,54.7,46.3,30.10,ESE,113,0.9,2.5,73,0.00,,,0.00,WUHU216HW,2013-04-29 08:06:00,
2013-04-29 01:11:00,54.5,46.1,30.10,ESE,113,0.9,2.5,73,0.00,,,0.00,WUHU216HW,2013-04-29 08:11:00,
2013-04-29 01:16:00,54.5,46.1,30.10,ESE,113,0.4,1.8,73,0.00,,,0.00,WUHU216HW,2013-04-29 08:16:00,
2013-04-29 01:21:00,54.5,46.1,30.10,NE,45,1.3,2.5,73,0.00,,,0.00,WUHU216HW,2013-04-29 08:21:00,
2013-04-29 01:26:00,54.5,46.1,30.10,ESE,113,0.9,2.5,73,0.00,,,0.00,WUHU216HW,2013-04-29 08:26:00,
2013-04-29 01:31:00,54.5,46.1,30.10,SSE,158,1.1,1.8,73,0.00,,,0.00,WUHU216HW,2013-04-29 08:31:00,
2013-04-29 01:36:00,54.5,46.1,30.10,SSW,203,0.9,1.3,73,0.00,,,0.00,WUHU216HW,2013-04-29 08:36:00,
2013-04-29 01:41:00,54.7,46.6,30.10,East,90,0.2,1.3,74,0.00,,,0.00,WUHU216HW,2013-04-29 08:41:00,
2013-04-29 01:46:00,54.5,46.5,30.10,East,90,0.4,2.0,74,0.00,,,0.00,WUHU216HW,2013-04-29 08:46:00,
2013-04-29 01:51:00,54.4,46.3,30.09,East,90,0.4,2.0,74,0.00,,,0.00,WUHU216HW,2013-04-29 08:51:00,
2013-04-29 01:56:00,54.4,46.6,30.09,ENE,68,1.1,1.6,75,0.00,,,0.00,WUHU216HW,2013-04-29 08:56:00,
2013-04-29 02:01:00,54.2,46.5,30.09,ENE,68,1.6,2.0,75,0.00,,,0.00,WUHU216HW,2013-04-29 09:01:00,
2013-04-29 02:06:00,54.2,46.5,30.09,East,90,0.4,2.0,75,0.00,,,0.00,WUHU216HW,2013-04-29 09:06:00,
2013-04-29 02:11:00,54.0,46.3,30.09,East,90,0.4,1.3,75,0.00,,,0.00,WUHU216HW,2013-04-29 09:11:00,
2013-04-29 02:16:00,54.0,46.3,30.09,SE,135,0.2,1.3,75,0.00,,,0.00,WUHU216HW,2013-04-29 09:16:00,
2013-04-29 02:21:00,54.2,46.5,30.09,ESE,113,0.2,1.3,75,0.00,,,0.00,WUHU216HW,2013-04-29 09:21:00,
2013-04-29 02:26:00,54.4,46.6,30.08,South,180,0.9,1.1,75,0.00,,,0.00,WUHU216HW,2013-04-29 09:26:00,
2013-04-29 02:31:00,54.4,46.6,30.09,South,180,0.2,1.1,75,0.00,,,0.00,WUHU216HW,2013-04-29 09:31:00,
2013-04-29 02:36:00,54.4,46.3,30.08,SSE,158,0.0,0.9,74,0.00,,,0.00,WUHU216HW,2013-04-29 09:36:00,
2013-04-29 02:41:00,54.4,46.6,30.08,SSE,158,0.4,0.9,75,0.00,,,0.00,WUHU216HW,2013-04-29 09:41:00,
2013-04-29 02:46:00,54.4,46.6,30.08,South,180,1.8,1.8,75,0.00,,,0.00,WUHU216HW,2013-04-29 09:46:00,
2013-04-29 02:51:00,54.4,46.6,30.08,SW,225,0.4,1.8,75,0.00,,,0.00,WUHU216HW,2013-04-29 09:51:00,
2013-04-29 02:56:00,54.4,46.6,30.08,SSE,158,0.4,1.8,75,0.00,,,0.00,WUHU216HW,2013-04-29 09:56:00,
2013-04-29 03:01:00,54.4,46.6,30.08,SSE,158,0.4,0.9,75,0.00,,,0.00,WUHU216HW,2013-04-29 10:01:00,
2013-04-29 03:06:00,54.2,46.5,30.08,SSW,203,0.4,2.2,75,0.00,,,0.00,WUHU216HW,2013-04-29 10:06:00,
2013-04-29 03:11:00,54.2,46.5,30.08,SW,225,1.1,2.2,75,0.00,,,0.00,WUHU216HW,2013-04-29 10:11:00,
2013-04-29 03:16:00,54.2,46.5,30.08,WNW,293,0.4,3.1,75,0.00,,,0.00,WUHU216HW,2013-04-29 10:16:00,
2013-04-29 03:21:00,54.2,46.5,30.08,WSW,248,1.3,3.1,75,0.00,,,0.00,WUHU216HW,2013-04-29 10:21:00,
2013-04-29 03:26:00,54.0,46.6,30.07,West,270,3.1,5.1,76,0.00,,,0.00,WUHU216HW,2013-04-29 10:26:00,
2013-04-29 03:31:00,54.0,46.6,30.07,SW,225,0.7,5.1,76,0.00,,,0.00,WUHU216HW,2013-04-29 10:31:00,
2013-04-29 03:36:00,53.8,46.8,30.07,SSW,203,2.5,4.7,77,0.00,,,0.00,WUHU216HW,2013-04-29 10:36:00,
2013-04-29 03:41:00,53.8,46.8,30.07,SW,225,1.3,4.7,77,0.00,,,0.00,WUHU216HW,2013-04-29 10:41:00,
2013-04-29 03:46:00,53.8,47.2,30.07,WNW,293,3.4,4.7,78,0.00,,,0.00,WUHU216HW,2013-04-29 10:46:00,
2013-04-29 03:51:00,53.8,47.5,30.07,SSW,203,5.6,5.6,79,0.00,,,0.00,WUHU216HW,2013-04-29 10:51:00,
2013-04-29 03:56:00,53.8,47.2,30.07,South,180,4.0,6.9,78,0.00,,,0.00,WUHU216HW,2013-04-29 10:56:00,
2013-04-29 04:01:00,53.8,47.5,30.07,South,180,2.5,6.9,79,0.00,,,0.00,WUHU216HW,2013-04-29 11:01:00,
2013-04-29 04:06:00,53.6,47.0,30.07,SW,225,4.0,4.7,78,0.00,,,0.00,WUHU216HW,2013-04-29 11:06:00,
2013-04-29 04:11:00,53.6,47.3,30.07,WSW,248,1.1,6.3,79,0.00,,,0.00,WUHU216HW,2013-04-29 11:11:00,
2013-04-29 04:16:00,53.6,47.7,30.07,SW,225,4.5,8.7,80,0.00,,,0.00,WUHU216HW,2013-04-29 11:16:00,
2013-04-29 04:21:00,53.6,47.7,30.07,SW,225,5.4,8.7,80,0.00,,,0.00,WUHU216HW,2013-04-29 11:21:00,
2013-04-29 04:26:00,53.6,47.7,30.07,SSW,203,3.4,7.2,80,0.00,,,0.00,WUHU216HW,2013-04-29 11:26:00,
2013-04-29 04:31:00,53.6,47.7,30.07,SSE,158,3.4,7.8,80,0.00,,,0.00,WUHU216HW,2013-04-29 11:31:00,
2013-04-29 04:36:00,53.6,47.7,30.07,SSW,203,2.5,7.8,80,0.00,,,0.00,WUHU216HW,2013-04-29 11:36:00,
2013-04-29 04:41:00,53.6,47.7,30.07,WSW,248,2.2,5.1,80,0.00,,,0.00,WUHU216HW,2013-04-29 11:41:00,
2013-04-29 04:46:00,53.6,47.7,30.07,SW,225,4.5,4.7,80,0.00,,,0.00,WUHU216HW,2013-04-29 11:46:00,
2013-04-29 04:51:00,53.5,47.5,30.07,SW,225,2.9,4.5,80,0.00,,,0.00,WUHU216HW,2013-04-29 11:51:00,
2013-04-29 04:56:00,53.3,47.6,30.07,South,180,1.8,5.1,81,0.00,,,0.00,WUHU216HW,2013-04-29 11:56:00,
2013-04-29 05:01:00,53.1,47.4,30.07,SW,225,2.2,5.4,81,0.00,,,0.00,WUHU216HW,2013-04-29 12:01:00,
2013-04-29 05:07:00,52.9,47.6,30.07,WSW,248,4.7,5.4,82,0.00,,,0.00,WUHU216HW,2013-04-29 12:07:00,
2013-04-29 05:12:00,52.9,47.6,30.06,SSW,203,1.1,5.4,82,0.00,,,0.00,WUHU216HW,2013-04-29 12:12:00,
2013-04-29 05:17:00,52.7,47.7,30.07,SW,225,1.1,5.4,83,0.00,,,0.00,WUHU216HW,2013-04-29 12:17:00,
2013-04-29 05:22:00,52.7,47.7,30.07,SSW,203,2.0,5.4,83,0.00,,,0.00,WUHU216HW,2013-04-29 12:22:00,
2013-04-29 05:27:00,52.6,47.9,30.06,West,270,2.9,6.5,84,0.00,,,0.00,WUHU216HW,2013-04-29 12:27:00,
2013-04-29 05:32:00,52.6,47.9,30.07,WSW,248,5.4,6.5,84,0.00,,,0.00,WUHU216HW,2013-04-29 12:32:00,
2013-04-29 05:37:00,52.4,48.0,30.07,SW,225,2.9,6.3,85,0.00,,,0.00,WUHU216HW,2013-04-29 12:37:00,
2013-04-29 05:42:00,52.4,48.0,30.07,SW,225,1.6,5.8,85,0.00,,,0.00,WUHU216HW,2013-04-29 12:42:00,
2013-04-29 05:47:00,52.2,47.8,30.07,South,180,1.1,3.6,85,0.00,,,0.00,WUHU216HW,2013-04-29 12:47:00,
2013-04-29 05:52:00,52.2,47.8,30.07,SW,225,2.7,3.6,85,0.00,,,0.00,WUHU216HW,2013-04-29 12:52:00,
2013-04-29 05:57:00,52.2,47.8,30.07,WSW,248,2.2,3.6,85,0.00,,,0.00,WUHU216HW,2013-04-29 12:57:00,
2013-04-29 06:02:00,52.0,47.9,30.07,SW,225,1.1,3.4,86,0.00,,,0.00,WUHU216HW,2013-04-29 13:02:00,
2013-04-29 06:07:00,52.0,47.9,30.08,SSW,203,2.5,3.4,86,0.00,,,0.00,WUHU216HW,2013-04-29 13:07:00,
2013-04-29 06:12:00,52.0,47.9,30.08,SW,225,0.4,3.4,86,0.00,,,0.00,WUHU216HW,2013-04-29 13:12:00,
2013-04-29 06:17:00,51.8,47.7,30.08,SW,225,1.1,3.4,86,0.00,,,0.00,WUHU216HW,2013-04-29 13:17:00,
2013-04-29 06:22:00,52.0,47.9,30.07,SSW,203,3.1,3.4,86,0.00,,,0.00,WUHU216HW,2013-04-29 13:22:00,
2013-04-29 06:27:00,51.8,47.7,30.07,SW,225,0.4,3.4,86,0.00,,,0.00,WUHU216HW,2013-04-29 13:27:00,
2013-04-29 06:32:00,51.8,48.1,30.07,WSW,248,1.6,3.1,87,0.00,,,0.00,WUHU216HW,2013-04-29 13:32:00,
2013-04-29 06:37:00,51.8,48.1,30.08,SSW,203,0.7,2.7,87,0.00,,,0.00,WUHU216HW,2013-04-29 13:37:00,
2013-04-29 06:42:00,51.8,48.1,30.08,South,180,1.1,3.4,87,0.00,,,0.00,WUHU216HW,2013-04-29 13:42:00,
2013-04-29 06:47:00,51.8,48.1,30.08,WSW,248,1.1,3.4,87,0.00,,,0.00,WUHU216HW,2013-04-29 13:47:00,
2013-04-29 06:52:00,52.7,49.0,30.08,SW,225,0.9,2.2,87,0.00,,,0.00,WUHU216HW,2013-04-29 13:52:00,
2013-04-29 06:57:00,54.2,50.0,30.08,SSW,203,0.4,2.2,86,0.00,,,0.00,WUHU216HW,2013-04-29 13:57:00,
2013-04-29 07:02:00,54.7,50.2,30.09,SW,225,1.8,2.2,85,0.00,,,0.00,WUHU216HW,2013-04-29 14:02:00,
2013-04-29 07:07:00,54.9,50.1,30.09,SW,225,0.0,1.8,84,0.00,,,0.00,WUHU216HW,2013-04-29 14:07:00,
2013-04-29 07:12:00,54.9,49.8,30.09,WSW,248,1.1,1.8,83,0.00,,,0.00,WUHU216HW,2013-04-29 14:12:00,
2013-04-29 07:17:00,54.9,49.5,30.10,West,270,0.7,1.1,82,0.00,,,0.00,WUHU216HW,2013-04-29 14:17:00,
2013-04-29 07:22:00,54.4,49.0,30.10,SSE,158,0.2,2.2,82,0.00,,,0.00,WUHU216HW,2013-04-29 14:22:00,
2013-04-29 07:27:00,53.8,48.5,30.10,WSW,248,0.0,2.2,82,0.00,,,0.00,WUHU216HW,2013-04-29 14:27:00,
2013-04-29 07:32:00,54.0,48.6,30.10,NNW,338,0.0,1.6,82,0.00,,,0.00,WUHU216HW,2013-04-29 14:32:00,
2013-04-29 07:37:00,53.6,48.3,30.10,NE,45,0.4,1.8,82,0.00,,,0.00,WUHU216HW,2013-04-29 14:37:00,
2013-04-29 07:42:00,53.1,47.8,30.10,NNW,338,0.0,1.8,82,0.00,,,0.00,WUHU216HW,2013-04-29 14:42:00,
2013-04-29 07:47:00,52.7,47.4,30.10,NNW,338,1.8,1.8,82,0.00,,,0.00,WUHU216HW,2013-04-29 14:47:00,
2013-04-29 07:52:00,52.6,47.3,30.10,North,0,0.4,1.8,82,0.00,,,0.00,WUHU216HW,2013-04-29 14:52:00,
2013-04-29 07:57:00,52.6,47.3,30.10,WNW,293,0.0,1.8,82,0.00,,,0.00,WUHU216HW,2013-04-29 14:57:00,
2013-04-29 08:02:00,52.7,47.4,30.10,WSW,248,1.8,1.8,82,0.00,,,0.00,WUHU216HW,2013-04-29 15:02:00,
2013-04-29 08:07:00,52.9,47.0,30.10,SSE,158,0.0,1.8,80,0.00,,,0.00,WUHU216HW,2013-04-29 15:07:00,
2013-04-29 08:12:00,52.9,46.6,30.11,North,0,0.7,1.1,79,0.00,,,0.00,WUHU216HW,2013-04-29 15:12:00,
2013-04-29 08:17:00,52.9,47.0,30.11,West,270,2.7,3.4,80,0.00,,,0.00,WUHU216HW,2013-04-29 15:17:00,
2013-04-29 08:22:00,52.9,46.6,30.11,NW,315,0.4,3.4,79,0.00,,,0.00,WUHU216HW,2013-04-29 15:22:00,
2013-04-29 08:27:00,52.9,46.6,30.11,SSW,203,1.1,2.7,79,0.00,,,0.00,WUHU216HW,2013-04-29 15:27:00,
2013-04-29 08:32:00,53.1,46.4,30.11,SSW,203,1.1,2.2,78,0.00,,,0.00,WUHU216HW,2013-04-29 15:32:00,
2013-04-29 08:37:00,52.9,45.9,30.11,NNW,338,1.3,2.7,77,0.00,,,0.00,WUHU216HW,2013-04-29 15:37:00,
2013-04-29 08:42:00,52.7,46.1,30.12,NNW,338,1.1,2.7,78,0.00,,,0.00,WUHU216HW,2013-04-29 15:42:00,
2013-04-29 08:47:00,53.3,46.6,30.11,WNW,293,0.9,2.2,78,0.00,,,0.00,WUHU216HW,2013-04-29 15:47:00,
2013-04-29 08:52:00,54.4,47.0,30.12,NNW,338,2.7,2.7,76,0.00,,,0.00,WUHU216HW,2013-04-29 15:52:00,
2013-04-29 08:57:00,54.5,47.1,30.12,West,270,0.4,3.4,76,0.00,,,0.00,WUHU216HW,2013-04-29 15:57:00,
2013-04-29 09:02:00,54.5,46.8,30.12,NNW,338,0.4,3.4,75,0.00,,,0.00,WUHU216HW,2013-04-29 16:02:00,
2013-04-29 09:07:00,54.7,46.6,30.12,WNW,293,3.1,3.4,74,0.00,,,0.00,WUHU216HW,2013-04-29 16:07:00,
2013-04-29 09:12:00,54.7,46.3,30.12,West,270,4.0,6.7,73,0.00,,,0.00,WUHU216HW,2013-04-29 16:12:00,
2013-04-29 09:17:00,54.5,46.1,30.12,West,270,2.7,6.7,73,0.00,,,0.00,WUHU216HW,2013-04-29 16:17:00,
2013-04-29 09:22:00,54.7,46.3,30.12,NNW,338,1.1,4.3,73,0.00,,,0.00,WUHU216HW,2013-04-29 16:22:00,
2013-04-29 09:27:00,55.1,46.6,30.12,NNW,338,0.4,4.0,73,0.00,,,0.00,WUHU216HW,2013-04-29 16:27:00,
2013-04-29 09:32:00,55.4,45.9,30.12,West,270,0.9,4.5,70,0.00,,,0.00,WUHU216HW,2013-04-29 16:32:00,
2013-04-29 09:37:00,55.8,45.4,30.12,NW,315,0.9,4.7,68,0.00,,,0.00,WUHU216HW,2013-04-29 16:37:00,
2013-04-29 09:42:00,56.0,46.0,30.12,NW,315,1.3,4.7,69,0.00,,,0.00,WUHU216HW,2013-04-29 16:42:00,
2013-04-29 09:47:00,56.5,45.3,30.12,North,0,2.5,3.8,66,0.00,,,0.00,WUHU216HW,2013-04-29 16:47:00,
2013-04-29 09:52:00,56.5,44.0,30.12,West,270,1.8,4.3,63,0.00,,,0.00,WUHU216HW,2013-04-29 16:52:00,
2013-04-29 09:57:00,56.2,43.8,30.12,SSW,203,0.4,4.3,63,0.00,,,0.00,WUHU216HW,2013-04-29 16:57:00,
2013-04-29 10:02:00,56.0,43.9,30.12,WSW,248,1.1,3.1,64,0.00,,,0.00,WUHU216HW,2013-04-29 17:02:00,
2013-04-29 10:07:00,56.2,44.6,30.12,WNW,293,1.1,2.5,65,0.00,,,0.00,WUHU216HW,2013-04-29 17:07:00,
2013-04-29 10:12:00,56.5,44.8,30.12,SSE,158,2.7,2.7,65,0.00,,,0.00,WUHU216HW,2013-04-29 17:12:00,
2013-04-29 10:17:00,56.5,44.8,30.12,South,180,2.7,6.9,65,0.00,,,0.00,WUHU216HW,2013-04-29 17:17:00,
2013-04-29 10:22:00,56.9,44.8,30.12,WNW,293,0.9,6.9,64,0.00,,,0.00,WUHU216HW,2013-04-29 17:22:00,
2013-04-29 10:27:00,57.2,44.7,30.13,NE,45,1.1,3.4,63,0.00,,,0.00,WUHU216HW,2013-04-29 17:27:00,
2013-04-29 10:32:00,57.4,44.1,30.13,WSW,248,1.6,3.4,61,0.00,,,0.00,WUHU216HW,2013-04-29 17:32:00,
2013-04-29 10:37:00,57.4,42.3,30.13,North,0,1.8,6.9,57,0.00,,,0.00,WUHU216HW,2013-04-29 17:37:00,
2013-04-29 10:42:00,57.2,42.1,30.13,WSW,248,1.8,6.9,57,0.00,,,0.00,WUHU216HW,2013-04-29 17:42:00,
2013-04-29 10:47:00,57.2,40.8,30.13,NNW,338,1.3,2.5,54,0.00,,,0.00,WUHU216HW,2013-04-29 17:47:00,
2013-04-29 10:52:00,57.2,42.1,30.13,NW,315,1.1,4.0,57,0.00,,,0.00,WUHU216HW,2013-04-29 17:52:00,
2013-04-29 10:57:00,57.2,42.1,30.13,West,270,0.4,6.0,57,0.00,,,0.00,WUHU216HW,2013-04-29 17:57:00,
2013-04-29 11:02:00,57.6,42.5,30.14,West,270,1.3,6.0,57,0.00,,,0.00,WUHU216HW,2013-04-29 18:02:00,
2013-04-29 11:07:00,58.0,43.3,30.13,WSW,248,2.5,5.8,58,0.00,,,0.00,WUHU216HW,2013-04-29 18:07:00,
2013-04-29 11:12:00,58.1,41.1,30.14,NNE,23,1.6,3.8,53,0.00,,,0.00,WUHU216HW,2013-04-29 18:12:00,
2013-04-29 11:17:00,57.8,40.8,30.14,North,0,1.1,5.1,53,0.00,,,0.00,WUHU216HW,2013-04-29 18:17:00,
2013-04-29 11:22:00,57.6,41.0,30.14,NW,315,1.6,5.1,54,0.00,,,0.00,WUHU216HW,2013-04-29 18:22:00,
2013-04-29 11:27:00,57.6,41.0,30.14,WSW,248,1.3,4.7,54,0.00,,,0.00,WUHU216HW,2013-04-29 18:27:00,
2013-04-29 11:32:00,58.1,40.1,30.14,NNE,23,3.4,4.7,51,0.00,,,0.00,WUHU216HW,2013-04-29 18:32:00,
2013-04-29 11:37:00,58.3,40.3,30.14,NNW,338,3.4,5.6,51,0.00,,,0.00,WUHU216HW,2013-04-29 18:37:00,
2013-04-29 11:42:00,59.4,41.8,30.14,South,180,1.3,6.0,52,0.00,,,0.00,WUHU216HW,2013-04-29 18:42:00,
2013-04-29 11:47:00,60.8,42.6,30.14,SSW,203,2.2,6.3,51,0.00,,,0.00,WUHU216HW,2013-04-29 18:47:00,
2013-04-29 11:52:00,61.2,42.9,30.14,West,270,3.1,6.3,51,0.00,,,0.00,WUHU216HW,2013-04-29 18:52:00,
2013-04-29 11:57:00,61.4,42.6,30.14,South,180,1.1,4.7,50,0.00,,,0.00,WUHU216HW,2013-04-29 18:57:00,
2013-04-29 12:02:00,61.6,42.8,30.14,WSW,248,2.0,4.7,50,0.00,,,0.00,WUHU216HW,2013-04-29 19:02:00,
2013-04-29 12:07:00,61.4,40.9,30.14,West,270,1.3,4.7,47,0.00,,,0.00,WUHU216HW,2013-04-29 19:07:00,
2013-04-29 12:12:00,60.5,40.1,30.15,WNW,293,0.9,4.5,47,0.00,,,0.00,WUHU216HW,2013-04-29 19:12:00,
2013-04-29 12:17:00,60.8,41.0,30.14,West,270,2.0,3.1,48,0.00,,,0.00,WUHU216HW,2013-04-29 19:17:00,
2013-04-29 12:22:00,61.2,40.1,30.14,North,0,1.1,4.0,46,0.00,,,0.00,WUHU216HW,2013-04-29 19:22:00,
2013-04-29 12:27:00,61.0,40.6,30.14,SSW,203,1.8,4.0,47,0.00,,,0.00,WUHU216HW,2013-04-29 19:27:00,
2013-04-29 12:32:00,61.7,41.2,30.14,West,270,3.6,5.8,47,0.00,,,0.00,WUHU216HW,2013-04-29 19:32:00,
2013-04-29 12:37:00,62.1,41.5,30.14,WSW,248,0.2,5.8,47,0.00,,,0.00,WUHU216HW,2013-04-29 19:37:00,
2013-04-29 12:42:00,62.8,42.2,30.14,SSE,158,1.8,5.1,47,0.00,,,0.00,WUHU216HW,2013-04-29 19:42:00,
2013-04-29 12:47:00,63.4,41.0,30.14,West,270,1.1,5.6,44,0.00,,,0.00,WUHU216HW,2013-04-29 19:47:00,
2013-04-29 12:52:00,61.7,40.1,30.14,East,90,0.4,5.6,45,0.00,,,0.00,WUHU216HW,2013-04-29 19:52:00,
2013-04-29 12:57:00,61.6,39.9,30.13,NE,45,0.7,4.3,45,0.00,,,0.00,WUHU216HW,2013-04-29 19:57:00,
2013-04-29 13:02:00,61.4,39.7,30.13,East,90,0.4,2.0,45,0.00,,,0.00,WUHU216HW,2013-04-29 20:02:00,
2013-04-29 13:07:00,60.8,38.1,30.13,NNE,23,2.5,2.7,43,0.00,,,0.00,WUHU216HW,2013-04-29 20:07:00,
2013-04-29 13:12:00,59.8,38.9,30.13,NNW,338,0.9,4.0,46,0.00,,,0.00,WUHU216HW,2013-04-29 20:12:00,
2013-04-29 13:17:00,59.6,39.9,30.13,NNE,23,3.1,5.4,48,0.00,,,0.00,WUHU216HW,2013-04-29 20:17:00,
2013-04-29 13:22:00,59.8,40.0,30.13,SE,135,1.1,5.4,48,0.00,,,0.00,WUHU216HW,2013-04-29 20:22:00,
2013-04-29 13:27:00,59.8,37.7,30.13,NNE,23,3.8,4.0,44,0.00,,,0.00,WUHU216HW,2013-04-29 20:27:00,
2013-04-29 13:32:00,59.4,38.5,30.13,NNW,338,0.0,4.0,46,0.00,,,0.00,WUHU216HW,2013-04-29 20:32:00,
2013-04-29 13:37:00,60.5,40.1,30.13,WSW,248,1.3,4.0,47,0.00,,,0.00,WUHU216HW,2013-04-29 20:37:00,
2013-04-29 13:42:00,61.7,41.2,30.13,SE,135,1.1,2.5,47,0.00,,,0.00,WUHU216HW,2013-04-29 20:42:00,
2013-04-29 13:47:00,61.6,39.9,30.13,West,270,0.7,2.5,45,0.00,,,0.00,WUHU216HW,2013-04-29 20:47:00,
2013-04-29 13:52:00,61.6,41.0,30.13,North,0,1.1,4.0,47,0.00,,,0.00,WUHU216HW,2013-04-29 20:52:00,
2013-04-29 13:57:00,62.5,41.3,30.12,NNW,338,1.6,4.0,46,0.00,,,0.00,WUHU216HW,2013-04-29 20:57:00,
2013-04-29 14:02:00,63.2,42.0,30.12,NNW,338,2.5,3.4,46,0.00,,,0.00,WUHU216HW,2013-04-29 21:02:00,
2013-04-29 14:07:00,63.9,42.6,30.12,West,270,0.9,2.9,46,0.00,,,0.00,WUHU216HW,2013-04-29 21:07:00,
2013-04-29 14:12:00,63.9,40.2,30.12,North,0,0.4,2.9,42,0.00,,,0.00,WUHU216HW,2013-04-29 21:12:00,
2013-04-29 14:17:00,62.6,40.9,30.13,WSW,248,0.4,2.9,45,0.00,,,0.00,WUHU216HW,2013-04-29 21:17:00,
2013-04-29 14:22:00,62.3,40.5,30.13,NE,45,2.7,2.7,45,0.00,,,0.00,WUHU216HW,2013-04-29 21:22:00,
2013-04-29 14:27:00,61.2,40.7,30.12,North,0,1.8,7.6,47,0.00,,,0.00,WUHU216HW,2013-04-29 21:27:00,
2013-04-29 14:32:00,60.8,39.8,30.12,WNW,293,1.1,7.6,46,0.00,,,0.00,WUHU216HW,2013-04-29 21:32:00,
2013-04-29 14:37:00,61.2,41.3,30.12,South,180,1.1,4.7,48,0.00,,,0.00,WUHU216HW,2013-04-29 21:37:00,
2013-04-29 14:42:00,62.3,40.5,30.12,NNE,23,2.7,6.7,45,0.00,,,0.00,WUHU216HW,2013-04-29 21:42:00,
2013-04-29 14:47:00,61.9,39.1,30.12,ESE,113,3.4,7.2,43,0.00,,,0.00,WUHU216HW,2013-04-29 21:47:00,
2013-04-29 14:52:00,60.8,39.2,30.12,NNE,23,2.5,7.2,45,0.00,,,0.00,WUHU216HW,2013-04-29 21:52:00,
2013-04-29 14:57:00,60.8,39.2,30.12,NE,45,1.1,6.3,45,0.00,,,0.00,WUHU216HW,2013-04-29 21:57:00,
2013-04-29 15:02:00,61.4,39.7,30.12,WSW,248,0.4,5.8,45,0.00,,,0.00,WUHU216HW,2013-04-29 22:02:00,
2013-04-29 15:07:00,61.2,38.4,30.12,NNE,23,1.8,6.3,43,0.00,,,0.00,WUHU216HW,2013-04-29 22:07:00,
2013-04-29 15:12:00,60.7,37.9,30.12,NNE,23,1.1,6.3,43,0.00,,,0.00,WUHU216HW,2013-04-29 22:12:00,
2013-04-29 15:17:00,61.0,39.4,30.12,WSW,248,4.7,4.7,45,0.00,,,0.00,WUHU216HW,2013-04-29 22:17:00,
2013-04-29 15:22:00,61.6,39.3,30.12,NNE,23,0.4,4.7,44,0.00,,,0.00,WUHU216HW,2013-04-29 22:22:00,
2013-04-29 15:27:00,61.9,40.8,30.12,SW,225,0.7,4.7,46,0.00,,,0.00,WUHU216HW,2013-04-29 22:27:00,
2013-04-29 15:32:00,62.1,39.8,30.12,North,0,1.1,1.3,44,0.00,,,0.00,WUHU216HW,2013-04-29 22:32:00,
2013-04-29 15:37:00,60.8,40.4,30.12,North,0,3.4,5.6,47,0.00,,,0.00,WUHU216HW,2013-04-29 22:37:00,
2013-04-29 15:42:00,59.9,40.8,30.12,NNE,23,3.4,5.6,49,0.00,,,0.00,WUHU216HW,2013-04-29 22:42:00,
2013-04-29 15:47:00,59.4,40.9,30.12,NNE,23,5.1,5.1,50,0.00,,,0.00,WUHU216HW,2013-04-29 22:47:00,
2013-04-29 15:52:00,59.4,40.9,30.12,NNE,23,3.6,11.0,50,0.00,,,0.00,WUHU216HW,2013-04-29 22:52:00,
2013-04-29 15:57:00,59.4,40.9,30.12,NNE,23,1.6,11.0,50,0.00,,,0.00,WUHU216HW,2013-04-29 22:57:00,
2013-04-29 16:02:00,59.6,40.4,30.12,NW,315,1.6,5.4,49,0.00,,,0.00,WUHU216HW,2013-04-29 23:02:00,
2013-04-29 16:07:00,59.9,41.3,30.12,NW,315,1.1,4.7,50,0.00,,,0.00,WUHU216HW,2013-04-29 23:07:00,
2013-04-29 16:12:00,59.9,40.1,30.12,NNW,338,3.4,3.4,48,0.00,,,0.00,WUHU216HW,2013-04-29 23:12:00,
2013-04-29 16:17:00,59.4,39.7,30.12,NE,45,0.9,3.8,48,0.00,,,0.00,WUHU216HW,2013-04-29 23:17:00,
2013-04-29 16:22:00,59.4,39.7,30.12,NW,315,0.4,3.8,48,0.00,,,0.00,WUHU216HW,2013-04-29 23:22:00,
2013-04-29 16:27:00,59.4,38.5,30.12,NNE,23,1.3,2.9,46,0.00,,,0.00,WUHU216HW,2013-04-29 23:27:00,
2013-04-29 16:32:00,59.4,38.0,30.12,NNE,23,0.7,2.9,45,0.00,,,0.00,WUHU216HW,2013-04-29 23:32:00,
2013-04-29 16:37:00,59.6,38.1,30.11,NNE,23,1.8,2.5,45,0.00,,,0.00,WUHU216HW,2013-04-29 23:37:00,
2013-04-29 16:42:00,59.8,38.3,30.11,NNE,23,1.3,4.7,45,0.00,,,0.00,WUHU216HW,2013-04-29 23:42:00,
2013-04-29 16:47:00,59.4,36.2,30.11,NNE,23,3.1,5.8,42,0.00,,,0.00,WUHU216HW,2013-04-29 23:47:00,
2013-04-29 16:52:00,58.7,35.6,30.11,NNE,23,2.0,6.7,42,0.00,,,0.00,WUHU216HW,2013-04-29 23:52:00,
2013-04-29 16:57:00,58.9,36.9,30.11,North,0,0.2,11.0,44,0.00,,,0.00,WUHU216HW,2013-04-29 23:57:00,
2013-04-29 17:02:00,59.6,38.1,30.11,NNE,23,5.6,11.0,45,0.00,,,0.00,WUHU216HW,2013-04-30 00:02:00,
2013-04-29 17:07:00,59.4,37.4,30.11,North,0,2.5,6.0,44,0.00,,,0.00,WUHU216HW,2013-04-30 00:07:00,
2013-04-29 17:12:00,60.5,38.9,30.11,WSW,248,0.7,6.0,45,0.00,,,0.00,WUHU216HW,2013-04-30 00:12:00,
2013-04-29 17:17:00,60.8,36.9,30.12,WNW,293,5.6,8.7,41,0.00,,,0.00,WUHU216HW,2013-04-30 00:17:00,
2013-04-29 17:22:00,60.7,36.8,30.11,North,0,4.3,11.4,41,0.00,,,0.00,WUHU216HW,2013-04-30 00:22:00,
2013-04-29 17:27:00,60.8,38.1,30.12,NE,45,1.1,11.4,43,0.00,,,0.00,WUHU216HW,2013-04-30 00:27:00,
2013-04-29 17:32:00,61.6,39.3,30.11,NNW,338,0.9,5.1,44,0.00,,,0.00,WUHU216HW,2013-04-30 00:32:00,
2013-04-29 17:37:00,61.4,37.5,30.11,West,270,2.5,5.4,41,0.00,,,0.00,WUHU216HW,2013-04-30 00:37:00,
2013-04-29 17:42:00,60.8,37.5,30.11,NE,45,0.4,5.4,42,0.00,,,0.00,WUHU216HW,2013-04-30 00:42:00,
2013-04-29 17:47:00,60.5,36.6,30.12,NW,315,5.1,5.6,41,0.00,,,0.00,WUHU216HW,2013-04-30 00:47:00,
2013-04-29 17:52:00,59.8,37.1,30.12,WNW,293,2.2,5.6,43,0.00,,,0.00,WUHU216HW,2013-04-30 00:52:00,
2013-04-29 17:57:00,59.6,36.4,30.12,NW,315,2.5,4.0,42,0.00,,,0.00,WUHU216HW,2013-04-30 00:57:00,
2013-04-29 18:02:00,59.4,36.2,30.12,WSW,248,2.0,4.7,42,0.00,,,0.00,WUHU216HW,2013-04-30 01:02:00,
2013-04-29 18:07:00,59.4,36.2,30.12,NNW,338,2.0,8.9,42,0.00,,,0.00,WUHU216HW,2013-04-30 01:07:00,
2013-04-29 18:12:00,59.2,36.6,30.12,West,270,1.3,8.9,43,0.00,,,0.00,WUHU216HW,2013-04-30 01:12:00,
2013-04-29 18:17:00,59.0,35.3,30.12,NE,45,1.1,5.8,41,0.00,,,0.00,WUHU216HW,2013-04-30 01:17:00,
2013-04-29 18:22:00,58.3,34.1,30.12,ENE,68,5.4,5.8,40,0.00,,,0.00,WUHU216HW,2013-04-30 01:22:00,
2013-04-29 18:27:00,57.6,34.0,30.12,NNE,23,4.0,8.1,41,0.00,,,0.00,WUHU216HW,2013-04-30 01:27:00,
2013-04-29 18:32:00,57.2,33.7,30.12,NNW,338,12.1,12.1,41,0.00,,,0.00,WUHU216HW,2013-04-30 01:32:00,
2013-04-29 18:37:00,56.9,34.5,30.12,SSE,158,2.2,12.1,43,0.00,,,0.00,WUHU216HW,2013-04-30 01:37:00,
2013-04-29 18:42:00,56.5,34.7,30.12,WNW,293,4.3,12.1,44,0.00,,,0.00,WUHU216HW,2013-04-30 01:42:00,
2013-04-29 18:47:00,56.5,34.2,30.12,NE,45,0.2,6.0,43,0.00,,,0.00,WUHU216HW,2013-04-30 01:47:00,
2013-04-29 18:52:00,56.5,34.7,30.12,ENE,68,1.1,4.3,44,0.00,,,0.00,WUHU216HW,2013-04-30 01:52:00,
2013-04-29 18:57:00,56.3,34.6,30.12,NNW,338,1.1,3.4,44,0.00,,,0.00,WUHU216HW,2013-04-30 01:57:00,
2013-04-29 19:02:00,56.0,35.4,30.12,NNE,23,0.4,3.4,46,0.00,,,0.00,WUHU216HW,2013-04-30 02:02:00,
2013-04-29 19:07:00,55.6,35.0,30.13,NW,315,1.1,4.7,46,0.00,,,0.00,WUHU216HW,2013-04-30 02:07:00,
2013-04-29 19:12:00,55.4,34.8,30.13,NNW,338,1.1,4.7,46,0.00,,,0.00,WUHU216HW,2013-04-30 02:12:00,
2013-04-29 19:17:00,54.9,34.9,30.13,WSW,248,0.9,4.7,47,0.00,,,0.00,WUHU216HW,2013-04-30 02:17:00,
2013-04-29 19:22:00,54.5,34.0,30.13,ENE,68,3.4,4.7,46,0.00,,,0.00,WUHU216HW,2013-04-30 02:22:00,
2013-04-29 19:27:00,54.2,33.8,30.13,ENE,68,4.3,7.2,46,0.00,,,0.00,WUHU216HW,2013-04-30 02:27:00,
2013-04-29 19:32:00,53.6,33.2,30.13,NW,315,0.9,7.2,46,0.00,,,0.00,WUHU216HW,2013-04-30 02:32:00,
2013-04-29 19:37:00,53.5,34.2,30.13,North,0,4.3,5.4,48,0.00,,,0.00,WUHU216HW,2013-04-30 02:37:00,
2013-04-29 19:42:00,53.1,33.8,30.13,ENE,68,0.9,7.6,48,0.00,,,0.00,WUHU216HW,2013-04-30 02:42:00,
2013-04-29 19:47:00,52.9,34.3,30.13,North,0,1.8,7.6,49,0.00,,,0.00,WUHU216HW,2013-04-30 02:47:00,
2013-04-29 19:52:00,52.4,33.8,30.14,NW,315,1.1,3.4,49,0.00,,,0.00,WUHU216HW,2013-04-30 02:52:00,
2013-04-29 19:57:00,52.0,34.5,30.14,North,0,2.0,4.7,51,0.00,,,0.00,WUHU216HW,2013-04-30 02:57:00,
2013-04-29 20:02:00,51.7,34.1,30.14,NNE,23,1.1,4.7,51,0.00,,,0.00,WUHU216HW,2013-04-30 03:02:00,
2013-04-29 20:07:00,51.5,34.4,30.14,WNW,293,1.6,3.6,52,0.00,,,0.00,WUHU216HW,2013-04-30 03:07:00,
2013-04-29 20:12:00,51.1,34.6,30.14,NNE,23,0.2,3.6,53,0.00,,,0.00,WUHU216HW,2013-04-30 03:12:00,
2013-04-29 20:17:00,50.8,34.7,30.14,NNW,338,0.4,6.0,54,0.00,,,0.00,WUHU216HW,2013-04-30 03:17:00,
2013-04-29 20:22:00,50.8,35.1,30.14,NNE,23,0.4,6.0,55,0.00,,,0.00,WUHU216HW,2013-04-30 03:22:00,
2013-04-29 20:27:00,50.4,35.3,30.14,East,90,1.1,3.6,56,0.00,,,0.00,WUHU216HW,2013-04-30 03:27:00,
2013-04-29 20:32:00,50.0,35.4,30.15,NNE,23,0.4,3.8,57,0.00,,,0.00,WUHU216HW,2013-04-30 03:32:00,
2013-04-29 20:37:00,49.9,35.2,30.15,NNE,23,0.7,3.8,57,0.00,,,0.00,WUHU216HW,2013-04-30 03:37:00,
2013-04-29 20:42:00,49.3,36.1,30.15,North,0,2.5,4.5,60,0.00,,,0.00,WUHU216HW,2013-04-30 03:42:00,
2013-04-29 20:47:00,49.3,36.5,30.15,North,0,3.1,4.5,61,0.00,,,0.00,WUHU216HW,2013-04-30 03:47:00,
2013-04-29 20:52:00,49.0,36.1,30.15,West,270,1.3,3.1,61,0.00,,,0.00,WUHU216HW,2013-04-30 03:52:00,
2013-04-29 20:57:00,49.0,36.9,30.15,NE,45,0.4,2.2,63,0.00,,,0.00,WUHU216HW,2013-04-30 03:57:00,
2013-04-29 21:01:00,48.6,36.2,30.15,North,0,1.1,1.3,62,0.00,,,0.00,WUHU216HW,2013-04-30 04:01:00,
2013-04-29 21:06:00,48.4,36.0,30.15,NE,45,0.2,1.8,62,0.00,,,0.00,WUHU216HW,2013-04-30 04:06:00,
2013-04-29 21:11:00,48.2,36.3,30.16,West,270,1.1,1.8,63,0.00,,,0.00,WUHU216HW,2013-04-30 04:11:00,
2013-04-29 21:16:00,47.9,35.9,30.16,West,270,0.4,5.6,63,0.00,,,0.00,WUHU216HW,2013-04-30 04:16:00,
2013-04-29 21:21:00,47.7,35.7,30.16,North,0,2.0,5.6,63,0.00,,,0.00,WUHU216HW,2013-04-30 04:21:00,
2013-04-29 21:26:00,47.5,35.6,30.16,NW,315,0.4,2.5,63,0.00,,,0.00,WUHU216HW,2013-04-30 04:26:00,
2013-04-29 21:31:00,47.3,35.4,30.17,North,0,0.4,2.0,63,0.00,,,0.00,WUHU216HW,2013-04-30 04:31:00,
2013-04-29 21:36:00,47.2,35.6,30.17,North,0,1.1,2.0,64,0.00,,,0.00,WUHU216HW,2013-04-30 04:36:00,
2013-04-29 21:41:00,47.0,35.0,30.17,NW,315,0.2,2.0,63,0.00,,,0.00,WUHU216HW,2013-04-30 04:41:00,
2013-04-29 21:46:00,46.8,34.8,30.17,NW,315,0.0,2.0,63,0.00,,,0.00,WUHU216HW,2013-04-30 04:46:00,
2013-04-29 21:51:00,46.6,34.7,30.17,SW,225,0.4,2.2,63,0.00,,,0.00,WUHU216HW,2013-04-30 04:51:00,
2013-04-29 21:56:00,46.4,34.5,30.16,NNW,338,0.0,2.2,63,0.00,,,0.00,WUHU216HW,2013-04-30 04:56:00,
2013-04-29 22:01:00,46.3,34.8,30.17,NNE,23,0.4,0.4,64,0.00,,,0.00,WUHU216HW,2013-04-30 05:01:00,
2013-04-29 22:06:00,46.1,34.1,30.17,NNW,338,0.0,0.7,63,0.00,,,0.00,WUHU216HW,2013-04-30 05:06:00,
2013-04-29 22:11:00,46.1,34.1,30.17,NNW,338,0.0,0.7,63,0.00,,,0.00,WUHU216HW,2013-04-30 05:11:00,
2013-04-29 22:16:00,45.7,34.2,30.17,North,0,0.0,0.2,64,0.00,,,0.00,WUHU216HW,2013-04-30 05:16:00,
2013-04-29 22:21:00,45.7,34.2,30.17,NNW,338,0.0,0.2,64,0.00,,,0.00,WUHU216HW,2013-04-30 05:21:00,
2013-04-29 22:26:00,45.5,34.0,30.17,NNW,338,0.0,0.0,64,0.00,,,0.00,WUHU216HW,2013-04-30 05:26:00,
2013-04-29 22:31:00,45.4,33.8,30.17,NNW,338,0.0,0.2,64,0.00,,,0.00,WUHU216HW,2013-04-30 05:31:00,
2013-04-29 22:36:00,45.2,33.3,30.18,NNW,338,0.0,0.2,63,0.00,,,0.00,WUHU216HW,2013-04-30 05:36:00,
2013-04-29 22:41:00,45.0,33.1,30.18,NNW,338,0.0,0.0,63,0.00,,,0.00,WUHU216HW,2013-04-30 05:41:00,
2013-04-29 22:46:00,45.0,33.6,30.18,NNW,338,0.0,0.0,64,0.00,,,0.00,WUHU216HW,2013-04-30 05:46:00,
2013-04-29 22:51:00,44.8,33.4,30.18,NNW,338,0.0,0.0,64,0.00,,,0.00,WUHU216HW,2013-04-30 05:51:00,
2013-04-29 22:56:00,44.6,33.2,30.18,North,0,0.0,0.0,64,0.00,,,0.00,WUHU216HW,2013-04-30 05:56:00,
2013-04-29 23:01:00,44.5,33.0,30.18,NNW,338,0.0,0.7,64,0.00,,,0.00,WUHU216HW,2013-04-30 06:01:00,
2013-04-29 23:06:00,44.3,33.2,30.18,NNW,338,0.0,0.7,65,0.00,,,0.00,WUHU216HW,2013-04-30 06:06:00,
2013-04-29 23:11:00,44.1,34.2,30.18,North,0,0.4,0.4,68,0.00,,,0.00,WUHU216HW,2013-04-30 06:11:00,
2013-04-29 23:16:00,43.9,33.7,30.18,NNE,23,0.2,0.4,67,0.00,,,0.00,WUHU216HW,2013-04-30 06:16:00,
2013-04-29 23:21:00,43.7,33.5,30.18,NE,45,0.0,0.4,67,0.00,,,0.00,WUHU216HW,2013-04-30 06:21:00,
2013-04-29 23:26:00,43.7,33.5,30.18,NNW,338,0.0,0.4,67,0.00,,,0.00,WUHU216HW,2013-04-30 06:26:00,
2013-04-29 23:31:00,43.6,33.8,30.19,NNE,23,0.4,0.4,68,0.00,,,0.00,WUHU216HW,2013-04-30 06:31:00,
2013-04-29 23:36:00,43.6,33.3,30.18,NNE,23,0.0,0.4,67,0.00,,,0.00,WUHU216HW,2013-04-30 06:36:00,
2013-04-29 23:41:00,43.4,33.1,30.19,North,0,0.0,0.4,67,0.00,,,0.00,WUHU216HW,2013-04-30 06:41:00,
2013-04-29 23:46:00,43.2,33.4,30.19,NE,45,0.0,0.4,68,0.00,,,0.00,WUHU216HW,2013-04-30 06:46:00,
2013-04-29 23:51:00,43.0,33.2,30.19,NE,45,0.0,0.4,68,0.00,,,0.00,WUHU216HW,2013-04-30 06:51:00,
2013-04-29 23:56:00,42.8,33.5,30.19,NNE,23,0.0,0.2,69,0.00,,,0.00,WUHU216HW,2013-04-30 06:56:00,